Fergus Falls, MN

7:28 PM CST on December 09, 2019 (GMT -0600)
Fergus Falls Municipal-Mickelson

Weather History for KFFM - October, 2019

Change the Weather History Date:

Tuesday, October 15, 2019

  Actual Average Record
Temperature  
Mean Temperature 38 °F -  
Max Temperature 42 °F 54 °F 83 °F (1953)
Min Temperature 35 °F 33 °F 20 °F (1991)
Degree Days  
Heating Degree Days 26    
Moisture  
Dew Point 36 °F    
Average Humidity 89    
Maximum Humidity 100    
Minimum Humidity 81    
Precipitation  
Precipitation 0.03 in - - ()
Sea Level Pressure  
Sea Level Pressure 29.97 in    
Wind  
Wind Speed 6 mph ()    
Max Wind Speed 17 mph    
Max Gust Speed 24 mph    
Visibility 9.4 miles    
Events Rain    
Averages and records for this station are not official NWS values.
T = Trace of Precipitation, MM = Missing Value Source: Averaged Metar Reports

Daily Weather History Graph

Daily Weather History Graph

Search for Another Location

Airport or City:

Astronomy

Oct. 15, 2019 Rise Set
Actual Time 7:41 AM CDT 6:38 PM CDT
Civil Twilight 7:11 AM CDT 7:08 PM CDT
Nautical Twilight 6:36 AM CDT 7:43 PM CDT
Astronomical Twilight 6:01 AM CDT 8:18 PM CDT
Moon 7:54 PM CDT (10/15) 9:16 AM CDT (10/15)
Length of Visible Light 11h 57m
Length of Day
10h 56m
Full, 97% of the Moon is Illuminated
Oct 15
Full
Oct 21
Last Quarter
Oct 27
New
Nov 4
First Quarter
Nov 12
Full

Hourly Weather History & Observations

Time (CDT) Temp. Windchill Dew Point Humidity Pressure Visibility Wind Dir Wind Speed Gust Speed Precip Events Conditions
12:18 AM 37.4 °F 33.8 °F 33.8 °F 87% 29.88 in 7.0 mi ENE 4.6 mph - N/A   Clear
12:36 AM 37.4 °F 32.8 °F 33.8 °F 87% 29.87 in 7.0 mi East 5.8 mph - N/A   Clear
12:55 AM 37.4 °F 32.8 °F 33.8 °F 87% 29.87 in 7.0 mi ENE 5.8 mph - N/A   Clear
1:15 AM 39.2 °F 35.0 °F 33.8 °F 81% 29.85 in 10.0 mi East 5.8 mph - N/A   Clear
1:35 AM 39.2 °F 34.2 °F 33.8 °F 81% 29.83 in 10.0 mi East 6.9 mph - N/A   Clear
1:40 AM 39.2 °F 37.0 °F 33.8 °F 81% 29.84 in 10.0 mi ENE 3.5 mph - N/A   Scattered Clouds
1:57 AM 39.2 °F 37.0 °F 33.8 °F 81% 29.85 in 10.0 mi NNE 3.5 mph - N/A   Scattered Clouds
2:15 AM 37.4 °F 34.9 °F 33.8 °F 87% 29.85 in 10.0 mi NE 3.5 mph - N/A   Clear
2:35 AM 37.4 °F 33.8 °F 33.8 °F 87% 29.85 in 10.0 mi NE 4.6 mph - N/A   Clear
2:36 AM 37.4 °F 33.8 °F 33.8 °F 87% 29.85 in 10.0 mi NE 4.6 mph - N/A   Clear
2:55 AM 37.4 °F 33.8 °F 33.8 °F 87% 29.85 in 10.0 mi NE 4.6 mph - N/A   Clear
2:56 AM 37.4 °F 33.8 °F 33.8 °F 87% 29.85 in 10.0 mi NE 4.6 mph - N/A   Clear
3:36 AM 37.4 °F 31.4 °F 33.8 °F 87% 29.84 in 10.0 mi East 8.1 mph - N/A   Overcast
3:56 AM 37.4 °F 32.8 °F 33.8 °F 87% 29.85 in 10.0 mi East 5.8 mph - N/A   Overcast
4:15 AM 37.4 °F 32.8 °F 33.8 °F 87% 29.85 in 10.0 mi NE 5.8 mph - N/A   Overcast
4:16 AM 37.4 °F 32.8 °F 33.8 °F 87% 29.85 in 10.0 mi NE 5.8 mph - N/A   Overcast
4:35 AM 37.4 °F 33.8 °F 33.8 °F 87% 29.85 in 10.0 mi NE 4.6 mph - N/A   Overcast
4:39 AM 37.4 °F 34.9 °F 33.8 °F 87% 29.85 in 10.0 mi NE 3.5 mph - N/A   Mostly Cloudy
4:58 AM 37.4 °F 34.9 °F 33.8 °F 87% 29.85 in 10.0 mi NNE 3.5 mph - N/A   Scattered Clouds
5:15 AM 37.4 °F 34.9 °F 33.8 °F 87% 29.85 in 10.0 mi NE 3.5 mph - N/A   Clear
5:35 AM 35.6 °F 31.7 °F 33.8 °F 93% 29.86 in 10.0 mi North 4.6 mph - N/A   Mostly Cloudy
5:36 AM 35.6 °F 31.7 °F 33.8 °F 93% 29.86 in 10.0 mi North 4.6 mph - N/A   Mostly Cloudy
5:55 AM 35.6 °F 31.7 °F 33.8 °F 93% 29.86 in 10.0 mi NE 4.6 mph - N/A   Mostly Cloudy
6:18 AM 35.6 °F 31.7 °F 33.8 °F 93% 29.85 in 10.0 mi NE 4.6 mph - N/A   Overcast
6:37 AM 35.6 °F 31.7 °F 33.8 °F 93% 29.86 in 10.0 mi ENE 4.6 mph - N/A   Overcast
6:55 AM 37.4 °F 34.9 °F 33.8 °F 87% 29.86 in 10.0 mi NE 3.5 mph - N/A   Overcast
7:15 AM 37.4 °F - 33.8 °F 87% 29.86 in 10.0 mi Calm Calm - N/A   Overcast
7:16 AM 37.4 °F - 33.8 °F 87% 29.86 in 10.0 mi Calm Calm - N/A   Overcast
7:35 AM 37.4 °F - 33.8 °F 87% 29.87 in 10.0 mi Calm Calm - N/A   Overcast
7:57 AM 37.4 °F - 35.6 °F 93% 29.87 in 10.0 mi Calm Calm - N/A   Overcast
8:16 AM 37.4 °F - 35.6 °F 93% 29.88 in 10.0 mi Calm Calm - N/A   Overcast
8:35 AM 37.4 °F 32.8 °F 35.6 °F 93% 29.89 in 10.0 mi WNW 5.8 mph - N/A   Overcast
8:36 AM 37.4 °F 32.1 °F 35.6 °F 93% 29.89 in 10.0 mi WNW 6.9 mph - N/A   Overcast
8:55 AM 37.4 °F 31.4 °F 35.6 °F 93% 29.90 in 7.0 mi NW 8.1 mph - N/A   Light Drizzle
8:56 AM 37.4 °F 30.8 °F 35.6 °F 93% 29.90 in 5.0 mi NNW 9.2 mph - N/A Rain Light Rain
9:18 AM 37.4 °F - 35.6 °F 93% 29.90 in 10.0 mi Calm Calm - 0.01 in   Light Drizzle
9:36 AM 39.2 °F 35.9 °F 35.6 °F 87% 29.90 in 10.0 mi NNW 4.6 mph - 0.01 in   Overcast
9:55 AM 39.2 °F 34.2 °F 35.6 °F 87% 29.91 in 10.0 mi NNW 6.9 mph - 0.01 in   Overcast
10:15 AM 39.2 °F 35.0 °F 37.4 °F 93% 29.91 in 10.0 mi North 5.8 mph - N/A Rain Light Rain
10:16 AM 39.2 °F 35.9 °F 37.4 °F 93% 29.91 in 10.0 mi NNW 4.6 mph - N/A Rain Light Rain
10:35 AM 39.2 °F 35.0 °F 37.4 °F 93% 29.92 in 7.0 mi NNW 5.8 mph - N/A   Light Drizzle
10:40 AM 39.2 °F 34.2 °F 37.4 °F 93% 29.92 in 5.0 mi NNW 6.9 mph - N/A Rain Light Rain
10:57 AM 37.4 °F 32.1 °F 35.6 °F 93% 29.93 in 4.0 mi NW 6.9 mph - N/A Rain Rain
11:15 AM 37.4 °F 32.1 °F 37.4 °F 100% 29.94 in 7.0 mi NNW 6.9 mph - 0.01 in Rain Light Rain
11:35 AM 37.4 °F 32.8 °F 37.4 °F 100% 29.95 in 7.0 mi NNW 5.8 mph - N/A Rain Light Rain
11:36 AM 37.4 °F 32.8 °F 37.4 °F 100% 29.95 in 7.0 mi NNW 5.8 mph - 0.01 in Rain Light Rain
11:55 AM 39.2 °F 34.2 °F 37.4 °F 93% 29.95 in 5.0 mi NW 6.9 mph - 0.01 in Rain Light Rain
11:56 AM 39.2 °F 34.2 °F 37.4 °F 93% 29.95 in 7.0 mi NNW 6.9 mph - N/A   Light Drizzle
12:19 PM 39.2 °F 34.2 °F 37.4 °F 93% 29.97 in 7.0 mi North 6.9 mph - N/A   Overcast
12:36 PM 39.2 °F 33.6 °F 37.4 °F 93% 29.97 in 10.0 mi NNW 8.1 mph - N/A   Overcast
12:56 PM 39.2 °F 34.2 °F 37.4 °F 93% 29.98 in 10.0 mi NNW 6.9 mph - N/A   Overcast
1:15 PM 39.2 °F 34.2 °F 37.4 °F 93% 29.98 in 7.0 mi NNW 6.9 mph - N/A Rain Light Rain
1:35 PM 41.0 °F 35.8 °F 39.2 °F 93% 29.98 in 10.0 mi NNW 8.1 mph - 0.01 in Rain Light Rain
1:39 PM 41.0 °F 35.2 °F 39.2 °F 93% 29.98 in 10.0 mi NNW 9.2 mph - 0.01 in Rain Light Rain
1:58 PM 41.0 °F 35.2 °F 39.2 °F 93% 29.98 in 10.0 mi NNW 9.2 mph - N/A   Mostly Cloudy
2:35 PM 42.8 °F 37.0 °F 39.2 °F 87% 29.99 in 10.0 mi NNW 10.4 mph 17.3 mph N/A   Overcast
2:36 PM 42.8 °F 37.5 °F 39.2 °F 87% 29.99 in 10.0 mi NNW 9.2 mph - N/A   Overcast
2:55 PM 42.8 °F 36.6 °F 39.2 °F 87% 30.00 in 10.0 mi NNW 11.5 mph - N/A   Overcast
3:18 PM 42.8 °F 36.2 °F 39.2 °F 87% 30.00 in 10.0 mi NNW 12.7 mph 16.1 mph N/A   Overcast
3:36 PM 42.8 °F 36.6 °F 39.2 °F 87% 30.01 in 10.0 mi North 11.5 mph 17.3 mph N/A   Overcast
3:55 PM 42.8 °F 37.5 °F 39.2 °F 87% 30.02 in 10.0 mi NNW 9.2 mph - N/A   Overcast
4:15 PM 42.8 °F 37.5 °F 39.2 °F 87% 30.02 in 10.0 mi NNW 9.2 mph - N/A   Overcast
4:16 PM 42.8 °F 37.0 °F 39.2 °F 87% 30.02 in 10.0 mi NNW 10.4 mph - N/A   Overcast
4:35 PM 42.8 °F 36.6 °F 39.2 °F 87% 30.03 in 10.0 mi NNW 11.5 mph 16.1 mph N/A   Overcast
4:57 PM 42.8 °F 36.6 °F 39.2 °F 87% 30.04 in 10.0 mi NNW 11.5 mph 17.3 mph N/A   Overcast
5:15 PM 42.8 °F 35.4 °F 39.2 °F 87% 30.05 in 10.0 mi NNW 15.0 mph 20.7 mph N/A   Overcast
5:35 PM 42.8 °F 35.8 °F 37.4 °F 81% 30.05 in 10.0 mi NNW 13.8 mph 23.0 mph N/A   Overcast
5:55 PM 41.0 °F 32.5 °F 37.4 °F 87% 30.07 in 10.0 mi NNW 17.3 mph 24.2 mph N/A   Overcast
5:56 PM 41.0 °F 32.5 °F 37.4 °F 87% 30.07 in 10.0 mi NNW 17.3 mph 23.0 mph N/A   Overcast
6:19 PM 41.0 °F 33.5 °F 37.4 °F 87% 30.08 in 10.0 mi NNW 13.8 mph 23.0 mph N/A   Overcast
6:36 PM 41.0 °F 33.9 °F 35.6 °F 81% 30.09 in 10.0 mi North 12.7 mph 24.2 mph N/A   Overcast
6:55 PM 39.2 °F 30.8 °F 35.6 °F 87% 30.09 in 10.0 mi NNW 15.0 mph 20.7 mph N/A   Overcast
6:56 PM 39.2 °F 31.2 °F 35.6 °F 87% 30.09 in 10.0 mi NNW 13.8 mph 20.7 mph N/A   Overcast
7:15 PM 39.2 °F 31.6 °F 35.6 °F 87% 30.10 in 10.0 mi NNW 12.7 mph 23.0 mph N/A   Overcast
7:16 PM 39.2 °F 32.0 °F 35.6 °F 87% 30.10 in 10.0 mi NNW 11.5 mph 23.0 mph N/A   Overcast
7:35 PM 39.2 °F 31.6 °F 35.6 °F 87% 30.10 in 10.0 mi NNW 12.7 mph 18.4 mph N/A   Overcast
7:39 PM 39.2 °F 32.0 °F 35.6 °F 87% 30.10 in 10.0 mi NNW 11.5 mph 18.4 mph N/A   Overcast
7:58 PM 39.2 °F 32.5 °F 35.6 °F 87% 30.11 in 10.0 mi NNW 10.4 mph 17.3 mph N/A   Overcast
8:15 PM 39.2 °F 32.0 °F 35.6 °F 87% 30.12 in 10.0 mi NNW 11.5 mph - N/A   Overcast
8:35 PM 39.2 °F 30.5 °F 35.6 °F 87% 30.13 in 10.0 mi NNW 16.1 mph - N/A   Overcast
8:36 PM 39.2 °F 30.2 °F 33.8 °F 81% 30.12 in 10.0 mi NNW 17.3 mph - N/A   Overcast
8:55 PM 39.2 °F 31.2 °F 33.8 °F 81% 30.13 in 10.0 mi NNW 13.8 mph 19.6 mph N/A   Overcast
9:18 PM 37.4 °F 29.3 °F 33.8 °F 87% 30.13 in 10.0 mi NNW 12.7 mph 20.7 mph N/A   Overcast
9:37 PM 37.4 °F 30.3 °F 35.6 °F 93% 30.13 in 10.0 mi NNW 10.4 mph - N/A   Overcast
9:56 PM 37.4 °F 30.8 °F 35.6 °F 93% 30.13 in 10.0 mi NNW 9.2 mph - N/A   Overcast
10:15 PM 37.4 °F 30.8 °F 35.6 °F 93% 30.14 in 10.0 mi NNW 9.2 mph - N/A   Overcast
10:16 PM 37.4 °F 31.4 °F 35.6 °F 93% 30.14 in 10.0 mi NNW 8.1 mph - N/A   Overcast
10:35 PM 37.4 °F 30.3 °F 35.6 °F 93% 30.15 in 7.0 mi NW 10.4 mph 17.3 mph N/A   Overcast
10:57 PM 37.4 °F 29.3 °F 35.6 °F 93% 30.15 in 10.0 mi NW 12.7 mph - N/A   Overcast
11:16 PM 37.4 °F 30.3 °F 35.6 °F 93% 30.16 in 10.0 mi NW 10.4 mph 17.3 mph N/A   Overcast
11:35 PM 37.4 °F 29.3 °F 35.6 °F 93% 30.16 in 10.0 mi NNW 12.7 mph 19.6 mph N/A   Overcast
11:36 PM 37.4 °F 29.8 °F 35.6 °F 93% 30.16 in 10.0 mi NW 11.5 mph 19.6 mph N/A   Overcast
11:55 PM 37.4 °F 29.8 °F 33.8 °F 87% 30.16 in 10.0 mi NNW 11.5 mph 18.4 mph N/A   Overcast
11:56 PM 37.4 °F 29.3 °F 33.8 °F 87% 30.16 in 10.0 mi NNW 12.7 mph 18.4 mph N/A   Overcast